Regional Weather Roundup
Issued by NWS Jackson, KY

Home | Current Version | Previous Version | Graphics & Text | Print | Product List | Glossary On
Versions: 1 2 3 4 5 6 7 8 9 10 11 12 13 14 15 16 17 18 19 20 21 22 23 24 25 26 27 28 29 30 31 32 33 34 35 36 37 38 39 40 41 42 43 44 45 46 47 48 49 50
000
ASUS43 KJKL 021205
RWRJKL

EAST KENTUCKY HOURLY WEATHER ROUNDUP
NATIONAL WEATHER SERVICE JACKSON KY
800 AM EDT THU OCT 02 2014

NOTE: "FAIR" INDICATES FEW OR NO CLOUDS BELOW 12,000 FEET WITH
NO SIGNIFICANT WEATHER AND/OR OBSTRUCTIONS TO VISIBILITY.

* THESE REPORTS ARE NOT UNDER NWS QUALITY CONTROL AND MAY NOT
  REPORT WEATHER SUCH AS PRECIPITATION AND FOG.

KYZ079-080-083-085-087-088-110-112-115-119-120-021300
...EASTERN KENTUCKY...

CITY           SKY/WX    TMP DP  RH WIND       PRES   REMARKS
JACKSON        CLEAR     60  55  83 S3        30.09R
6HR MIN TEMP:  60; 6HR MAX TEMP:  65;

LONDON         MOCLDY    58  54  86 CALM      30.09R
6HR MIN TEMP:  56; 6HR MAX TEMP:  59;

SOMERSET*      CLOUDY    55  55 100 CALM      30.09R
MONTICELLO*    CLEAR     58  56  93 SW5       30.09R
6HR MIN TEMP:  56; 6HR MAX TEMP:  58;

WILLIAMSBURG*    N/A    N/A N/A N/A CALM        N/A
MIDDLESBORO*   FOG       53  53 100 CALM      30.13R VSB<1/4
6HR MIN TEMP:  52; 6HR MAX TEMP:  54;

HARLAN APT*    CLOUDY    54  54 100 E6        30.13R VSB<1/4
BLACK MTN*       N/A     57  50  77 S5          N/A
PIKEVILLE APT* CLEAR     57  55  94 S5        30.11R
BIG SANDY*     SUNNY     59  56  92 CALM      30.10R
6HR MIN TEMP:  58; 6HR MAX TEMP:  64;

MOREHEAD APT*  MOSUNNY   59  57  94 SE6       30.09R
$$

KYZ035-036-041-042-044-050-067-078-099-021300
...CENTRAL KENTUCKY...

CITY           SKY/WX    TMP DP  RH WIND       PRES   REMARKS
MT STERLING*   MOCLDY    57  55  94 CALM      30.08R
FLEMING/MASON* PTCLDY    56  56 100 SE3       30.07R FOG
DANVILLE*      CLEAR     59  54  82 SW5       30.07R
RICHMOND*      PTCLDY    59  54  82 CALM      30.06R
LEXINGTON      MOCLDY    64  56  75 S7        30.05R
6HR MIN TEMP:  63; 6HR MAX TEMP:  66;

FRANKFORT      CLEAR     61  56  83 S3        30.03R
6HR MIN TEMP:  60; 6HR MAX TEMP:  64;

$$

KYZ091>093-OHZ055-061-077-WVZ005-015-034-035-042-021300
...SOUTHERN OHIO/WEST VIRGINIA...

CITY           SKY/WX    TMP DP  RH WIND       PRES   REMARKS
COVINGTON      PTCLDY    59  55  87 S7        30.02R
COLUMBUS       PTCLDY    54  51  90 E3        30.06R
DAYTON         PTCLDY    56  51  84 SE7       30.05R
WILMINGTON     CLEAR     54  51  90 E3        30.05R
HUNTINGTON     FOG       53  53 100 CALM      30.07R VSB 1/4
CHARLESTON     FOG       54  53  97 CALM      30.09R VSB 1/4
PINEVILLE*     FOG       55  55 100 MISG      30.19R VSB 1/4
BECKLEY        CLEAR     52  49  89 CALM      30.16R
BLUEFIELD      CLEAR     55  51  86 SE3       30.18R
$$

VAZ002-007-008-TNZ017-027-036-066-071-021300
...SOUTHWEST VIRGINIA/EAST TENNESSEE...

CITY           SKY/WX    TMP DP  RH WIND       PRES   REMARKS
WISE*          CLEAR     55  48  76 CALM      30.17R
JONESVILLE*    MOSUNNY   50  50 100 CALM      30.16R FOG
ABINGDON*      CLEAR     55  53  92 E6        30.15R
BRISTOL        CLEAR     52  49  89 CALM      30.13S FOG
KNOXVILLE      PTCLDY    57  55  93 CALM      30.10R
OAK RIDGE      FOG       56  55  97 CALM      30.13R VSB 1/4
CROSSVILLE     CLEAR     60  53  77 CALM      30.12R
NASHVILLE      PTCLDY    65  59  81 S6        30.03R
$$

...KEY TO REMARKS...
VSB - VISIBILITY IN MILES
WCI - WIND CHILL INDEX
HX  - HEAT INDEX

$$


USA.gov is the U.S. government's official web portal to all federal, state and local government web resources and services.